USA 62

导读 | 星芒AI

USA 62 是一颗由美国国家侦察局(NRO)研制并发射的侦察卫星,于1992年12月20日通过航天飞机“哥伦比亚号”(STS-48任务)送入轨道。该卫星主要用于电子侦察和信号情报收集,旨在监视全球范围内的通信和雷达信号。USA 62 是美国冷战后期至后冷战时期情报系统的重要组成部分,其任务和能力在公开资料中较少披露,属于高度机密项目。该卫星最终在2000年左右退役。

基本信息
目录编号:
20692
目录名称:
USA 62
国际标识:
1990-050D
轨道中心:
EARTH
卫星名称:
USA 62
卫星全名:
--
卫星状态:
在轨 (已飞行12930 天)
发射日期:
1990-06-08 UTC
国别 :
美国 (US)
星等 :
--
轨道信息
数据来源 国际轨道数据 AOE轨道数据
星历时间 2025-11-01T03:49:27+0800
23小时前
查看轨道信息
2025-10-31T02:00:00+0800
2天前
查看轨道信息
半长轴 7407.614km 7407.699km
偏心率 0.0883097 0.0883008
轨道倾角 63.294° 63.292°
近地点辐角 80.306° 80.284°
升交点赤经 106.187° 109.085°
平近点角 289.648° 54.901°
近地点 375.314km 375.458km
远地点 1683.644km 1683.67km
周期 105.749分钟 105.751分钟
每日圈数 13.617121 13.616887
详细信息
使用方式:
暂无
2D轨道图
3D轨道图
轨道高度分析图
轨道倾角分析图
轨道综合分析图
查看轨道综合分析图